Vertical_Velocity
-2 -4 -4 1 3 4 -1 1 1 -0 0 -3 7 7 -31 10 2 -14 14 4 -8 3 5 2 0 -16 34 -4 -8 -0 4 9 -1 -0 2 -5 0 -3 6 4 -6 -0 -2 -2 6 -1 -7 -5 -1 -1 -3 0 -3 -4
-4 -8 -6 -3 -1 2 3 -2 -2 2 3 -13 -2 3 -14 8 3 9 -18 -0 -15 161 -3 -1 9 -1 19 24 -4 -7 6 -3 -6 2 -1 -6 -4 -1 -3 -8 7 9 -10 -4 -9 7 -6 2 -5 2 -4 -6 -2 1
-2 -4 -8 -7 -5 1 -5 -5 -1 4 -7 -9 -1 -9 6 -6 -2 -0 1 20 13 8 5 2 -6 -6 -4 2 -1 -9 8 4 1 -11 -0 -1 -4 -4 -4 -8 8 -1 -6 -1 0 0 11 15 -2 6 -4 -3 -4 -2
-6 7 11 -2 -4 -0 -6 -2 -9 2 9 -1 -18 -2 -5 18 -2 -1 13 167 153 -2 -5 1 -6 -3 0 1 1 -3 -1 -6 -2 4 0 -1 -2 -1 -4 -0 -3 -0 -2 -0 -5 -2 -6 8 3 -12 -0 -0 -2 4
-8 2 -6 -2 12 11 7 1 14 -10 -28 -17 -3 -2 -6 11 2 16 -7 -17 10 3 -6 -2 1 4 2 -1 -3 5 -5 6 1 1 0 -2 -4 1 -1 3 -1 -1 2 -4 2 -4 -5 3 -10 1 -1 -1 -2 2
13 18 23 13 9 8 -3 7 15 9 -5 -5 -0 -0 -1 11 14 3 8 1 7 4 -2 4 2 3 1 3 4 7 2 5 9 -1 -0 -5 -4 1 -1 -4 3 -9 -2 6 -2 -3 7 -6 -1 -1 1 -1 2 0
14 6 -2 -1 -2 -10 -6 -8 -8 -1 1 13 2 2 4 -2 6 2 3 2 8 1 -1 -1 1 -0 0 -3 -4 0 3 1 6 -5 -1 2 5 -0 0 1 -7 -5 1 -3 1 10 -4 -8 -7 -7 5 -4 -2 0
35 28 4 9 5 -1 0 2 2 3 3 -1 -3 2 7 2 4 10 5 4 3 2 -1 -0 0 5 4 -2 2 3 -3 4 1 -0 3 -1 4 -1 2 -5 -7 -3 1 -1 2 4 0 -1 -1 -0 -1 -3 -3 -1
3 -0 4 1 -3 -2 -3 -4 -4 -2 -0 1 2 4 8 9 6 5 -1 2 4 -2 -11 8 5 -6 1 3 4 7 3 5 5 0 1 2 1 2 -10 -5 -5 5 -1 -1 1 -5 1 4 1 1 0 -1 -1 -2
11 -4 -0 10 19 13 15 3 1 2 5 9 11 13 22 5 7 1 -1 -2 4 -17 -13 5 4 2 -4 -1 2 7 4 -0 1 -1 3 0 -2 -0 -1 -2 1 1 2 1 -5 3 0 0 1 -1 -1 2 -0 -1
6 14 -3 -6 -1 1 4 14 15 15 18 12 9 4 11 2 1 1 -2 5 -6 -11 1 4 6 5 3 4 3 4 3 4 -2 -1 1 -1 -6 -6 2 -2 4 2 -1 1 0 -0 1 0 0 4 0 0 0 -1
-3 3 20 6 -2 -5 -4 4 2 0 -2 -2 -7 -4 3 10 4 -2 -2 -0 3 -4 -5 2 2 3 3 5 0 1 0 -0 -1 1 2 -1 -11 0 -0 1 1 1 3 1 0 0 2 2 0 -0 -0 -0 -1 -1
-1 -2 -7 10 9 1 -2 2 13 12 2 2 4 2 -2 -6 -6 -10 3 -9 -13 -4 -1 3 0 2 4 3 0 -1 0 -1 0 0 0 -8 -2 -2 0 -1 -0 0 0 0 -1 1 1 1 -0 0 -0 -1 -1 0
-1 -4 -4 -4 4 5 12 2 3 1 -4 0 -1 -4 -9 -11 -7 -8 -8 3 10 4 4 2 5 -0 1 1 1 -2 -2 1 -0 -1 -5 -1 0 0 -1 0 0 0 -0 2 2 1 -1 -1 -0 -1 -1 -0 0 0
3 1 1 3 0 -1 -4 4 -4 -1 -3 -10 -12 -5 8 -2 5 5 7 10 9 11 8 4 5 2 1 0 1 1 -1 -0 1 -2 -1 0 -0 -0 0 -2 2 -0 -0 -1 -1 -1 -1 0 1 0 0 0 0 0
-0 2 1 2 5 6 3 -1 4 3 2 0 0 2 1 2 5 -0 3 4 2 -4 -2 1 -3 -1 -2 -1 0 2 1 3 -2 -1 0 0 0 1 1 4 -0 -2 -2 3 1 0 -0 0 0 0 1 0 -1 -2
1 -1 -0 -0 0 -1 -2 4 10 3 -2 1 2 6 5 3 2 1 -0 -2 -4 -2 1 -1 -1 -0 -0 2 0 3 2 1 1 2 3 3 3 2 -2 0 2 2 2 1 -0 -1 -1 0 0 -1 -2 0 -2 1
0 -4 -5 -4 -3 -0 2 4 -1 -3 -1 2 2 4 3 1 -0 -1 -1 -1 -0 -1 -0 -1 1 2 1 3 1 1 2 2 1 -2 -5 -4 0 2 5 2 -0 0 2 0 1 1 -0 -1 -3 -0 -1 2 -2 -4
-3 -3 -5 -2 -2 0 -8 -8 -4 -7 1 2 2 2 2 1 -0 -1 -2 -1 -1 -1 0 1 -1 1 2 3 2 1 1 1 -0 2 2 1 2 3 -1 -0 5 2 -1 -1 -2 -2 0 -2 -1 -0 1 1 -0 -4
-1 -2 -1 -2 -1 -0 -8 -4 0 -6 -1 -2 0 -2 -2 -2 -1 0 -1 -1 -1 -2 -2 -2 -0 1 2 1 1 0 -0 0 1 -1 -1 -0 2 2 2 1 -1 -1 -0 1 0 -2 0 -0 2 -0 -0 -2 0 -1
-1 0 0 -1 -2 -1 -4 -0 -3 -1 1 -0 -0 -1 -1 -0 2 2 1 1 1 -2 -1 0 2 2 2 1 1 -0 1 2 1 1 4 2 -2 -1 0 0 -0 -1 1 1 2 0 2 1 1 -1 -0 -1 -1 -0
-3 -4 -3 -4 -5 -4 -3 -1 -4 -1 -2 -2 -1 1 1 1 1 -0 0 1 -0 0 1 1 1 1 1 0 0 -0 1 1 2 2 2 1 3 10 9 6 5 -1 8 8 5 3 2 -1 2 -2 -1 1 -1 -1
-5 -2 -3 -4 -4 -2 -2 -1 -1 -2 -1 0 1 0 1 1 1 0 -2 -0 0 2 2 1 0 -0 0 0 -0 -1 0 2 3 5 6 9 9 5 3 8 9 7 10 5 2 1 1 -1 2 0 0 -1 -2 -1
-4 -4 -4 -3 -3 -3 -2 -1 1 -0 -2 -1 -1 -3 -2 -2 -1 -2 -1 -1 -2 -1 -1 -2 -3 -2 -1 -1 1 1 -1 -2 -3 1 1 2 4 3 -2 1 2 -4 3 4 2 -1 0 -1 0 -1 -1 -2 -3 -2
-3 -6 -2 -2 -3 -2 -1 -2 -3 -1 -2 -1 -3 -2 -1 -0 -1 -0 0 -0 -1 -1 -2 -1 -1 -1 -1 -2 -2 -1 -0 1 1 1 1 2 1 0 1 1 -0 2 -1 -1 -0 -1 -3 -1 -1 -2 -1 -2 -2 -0
-5 -2 -3 -1 -2 -2 -1 -2 -0 1 1 -1 0 0 -2 -1 1 -1 0 0 -0 -1 0 1 -1 -1 0 1 1 0 1 1 1 -1 -1 -1 1 -1 -2 -3 -3 8 -2 -0 -2 -1 -2 -2 -2 -1 -1 -2 -3 -2
-6 -3 -0 0 -2 -0 -0 -1 -1 -1 -2 -3 -1 1 0 2 -1 -0 1 1 1 1 -1 -1 0 1 1 1 0 -0 0 1 1 -2 -2 -0 2 1 0 1 -1 -2 -1 1 -0 -1 -2 -2 -2 -2 -1 -1 -3 -2
-2 -2 1 -1 -1 -0 -1 -0 -0 -1 -0 1 -1 -1 0 -0 1 0 1 1 1 0 0 1 1 0 -1 -2 -1 -0 -1 -2 -2 1 3 2 1 2 -1 -1 1 -0 -1 -1 -2 -2 -2 -2 -2 -1 -1 -1 1 0
-3 -3 -3 -2 -4 -1 -3 -2 -1 1 0 -0 0 -1 0 1 0 1 0 0 -0 -0 -0 -0 -1 -0 -1 -1 -1 0 2 2 3 1 -0 -3 -8 -4 -2 -3 -3 -2 -2 -2 -2 -1 -1 -0 -0 -1 -1 -1 -0 -0
-2 -0 -3 -6 -2 -0 -1 -1 -1 -1 -1 -1 -0 -0 0 0 0 0 -0 -0 -0 -0 0 -0 0 0 -0 0 1 2 -0 -0 -1 -1 -1 -1 -2 -2 -2 -2 -1 -1 -1 -2 -1 -1 -1 -1 -0 -1 -1 -1 -1 -0
0 -1 -0 -2 -2 -1 -0 1 2 2 1 1 0 0 2 1 1 1 1 1 1 0 0 1 0 1 0 0 -1 -1 -0 1 0 0 -0 -0 -1 -1 -2 -2 -2 -2 -2 -1 -1 -1 -1 -1 -0 -0 -0 -1 -1 -0
-3 -3 0 -0 -3 1 0 0 -1 -1 -4 -3 1 1 -0 -1 3 -0 1 1 1 1 1 0 0 -0 -1 -0 -0 -0 -0 -0 0 0 -0 -1 -1 -2 -2 -2 -1 -1 -0 -0 -1 0 0 -0 0 -0 -0 -0 -0 0
-4 -4 -2 -1 -2 -1 -0 -1 -1 -3 0 -1 1 1 1 1 0 1 0 0 0 0 -0 -0 -0 -0 -0 -0 -1 -1 -1 -1 -1 -1 0 0 2 -0 -2 -0 -0 -0 -0 -0 -0 -1 0 -0 0 0 -0 0 0 0
Height
2765 2775 2784 2793 2803 2812 2820 2828 2836 2844 2853 2863 2873 2880 2903 2916 2931 2945 2959 2967 2972 2985 2996 3005 3015 3021 3027 3030 3034 3040 3048 3051 3056 3060 3064 3066 3067 3069 3072 3073 3074 3075 3077 3078 3081 3082 3081 3079 3080 3083 3081 3080 3079 3078
2771 2780 2788 2797 2806 2813 2820 2827 2835 2843 2852 2862 2871 2886 2904 2918 2931 2946 2956 2969 2973 2972 2988 2996 3005 3014 3022 3028 3030 3038 3046 3049 3052 3056 3059 3061 3063 3065 3067 3070 3072 3075 3075 3076 3078 3078 3077 3077 3077 3076 3074 3075 3074 3072
2779 2786 2793 2800 2806 2813 2819 2826 2834 2843 2852 2861 2877 2892 2905 2919 2932 2943 2951 2963 2970 2979 2988 2998 3004 3012 3018 3024 3027 3035 3041 3044 3048 3051 3055 3057 3060 3062 3064 3066 3068 3070 3070 3072 3074 3075 3076 3075 3073 3072 3070 3068 3068 3067
2784 2789 2794 2799 2804 2810 2818 2825 2834 2841 2853 2873 2884 2898 2912 2927 2939 2942 2941 2928 2939 2972 2982 2991 3002 3009 3016 3021 3026 3032 3037 3039 3045 3049 3051 3053 3056 3058 3060 3063 3064 3066 3066 3068 3068 3070 3070 3070 3064 3064 3064 3063 3062 3061
2786 2792 2796 2801 2807 2813 2820 2828 2838 2851 2863 2875 2892 2906 2923 2934 2946 2945 2953 2957 2964 2976 2982 2992 3000 3006 3011 3017 3023 3028 3034 3039 3041 3045 3046 3049 3052 3055 3056 3058 3060 3061 3062 3063 3064 3061 3064 3061 3057 3059 3058 3057 3055 3054
2797 2801 2806 2810 2816 2823 2831 2839 2848 2859 2871 2886 2899 2916 2929 2941 2948 2954 2961 2968 2973 2979 2985 2991 2996 3002 3007 3013 3019 3023 3029 3034 3037 3038 3041 3044 3048 3051 3051 3053 3055 3054 3056 3057 3057 3056 3055 3053 3053 3052 3051 3050 3048 3046
2811 2817 2821 2825 2830 2838 2845 2853 2863 2873 2885 2896 2911 2925 2937 2946 2953 2960 2965 2971 2975 2980 2986 2991 2995 2999 3003 3008 3013 3018 3024 3028 3030 3032 3037 3041 3044 3044 3046 3048 3046 3050 3050 3050 3051 3051 3046 3046 3045 3044 3046 3043 3041 3039
2828 2834 2838 2841 2847 2853 2861 2869 2879 2888 2900 2911 2922 2933 2942 2951 2959 2965 2969 2973 2977 2982 2985 2988 2990 2996 3000 3004 3009 3014 3017 3023 3025 3028 3032 3035 3038 3039 3040 3041 3042 3044 3042 3043 3044 3044 3041 3040 3038 3038 3037 3035 3033 3031
2846 2849 2854 2859 2864 2870 2876 2884 2894 2903 2912 2922 2931 2941 2949 2957 2961 2966 2969 2974 2977 2982 2982 2984 2987 2990 2996 3001 3005 3011 3014 3018 3021 3023 3027 3031 3031 3032 3033 3036 3036 3037 3035 3035 3035 3034 3035 3034 3032 3031 3029 3027 3026 3024
2859 2863 2867 2872 2877 2883 2890 2897 2905 2912 2920 2929 2938 2946 2952 2957 2962 2966 2972 2974 2978 2979 2979 2981 2984 2988 2994 2998 3003 3009 3011 3015 3017 3020 3022 3023 3024 3027 3029 3029 3029 3029 3029 3027 3026 3028 3027 3026 3026 3024 3023 3022 3020 3019
2871 2875 2879 2883 2887 2892 2898 2904 2911 2918 2925 2932 2938 2944 2949 2956 2963 2968 2972 2975 2976 2979 2979 2979 2983 2986 2991 2995 3000 3004 3007 3010 3012 3014 3016 3015 3016 3022 3022 3022 3022 3022 3021 3021 3021 3019 3019 3019 3018 3019 3018 3017 3016 3015
2884 2887 2889 2893 2897 2901 2907 2912 2918 2923 2928 2934 2940 2947 2954 2960 2963 2968 2970 2974 2974 2976 2978 2980 2983 2986 2989 2993 2997 3001 3004 3007 3005 3008 3009 3008 3011 3014 3015 3015 3015 3015 3014 3014 3014 3013 3014 3014 3014 3014 3014 3013 3012 3011
2894 2895 2899 2901 2903 2908 2914 2918 2923 2929 2933 2939 2945 2951 2956 2961 2964 2966 2966 2970 2972 2972 2975 2978 2981 2985 2988 2992 2995 2998 2999 3001 3002 3002 3002 3003 3007 3008 3008 3008 3008 3008 3008 3008 3009 3009 3010 3010 3010 3010 3010 3009 3008 3006
2902 2903 2905 2908 2912 2912 2916 2921 2926 2931 2936 2942 2947 2952 2956 2959 2962 2962 2966 2969 2970 2970 2973 2976 2980 2983 2985 2989 2992 2994 2995 2997 2996 2996 2996 2999 3000 3000 3000 3001 3001 3002 3003 3005 3005 3006 3006 3007 3006 3006 3006 3005 3004 3003
2908 2909 2911 2913 2916 2918 2920 2923 2928 2933 2938 2943 2948 2951 2953 2955 2958 2960 2963 2964 2966 2968 2971 2974 2978 2981 2984 2986 2988 2990 2991 2990 2990 2990 2992 2993 2993 2994 2995 2995 2997 2998 3000 3001 3002 3003 3003 3003 3002 3002 3002 3001 2999 2998
2912 2915 2916 2918 2921 2923 2926 2928 2930 2934 2938 2942 2945 2947 2950 2954 2956 2959 2961 2963 2966 2969 2972 2975 2977 2979 2981 2984 2985 2984 2986 2986 2986 2987 2988 2989 2989 2990 2991 2993 2994 2995 2997 2998 2998 2999 2999 2999 2999 2998 2997 2996 2994 2993
2918 2918 2920 2922 2925 2926 2928 2932 2935 2937 2941 2943 2946 2949 2951 2954 2956 2958 2960 2963 2965 2968 2970 2973 2975 2976 2978 2980 2981 2982 2982 2983 2984 2985 2985 2986 2987 2989 2990 2992 2992 2993 2994 2995 2995 2995 2995 2995 2994 2993 2992 2991 2988 2986
2924 2925 2926 2927 2929 2931 2932 2934 2937 2939 2943 2947 2949 2951 2953 2955 2957 2960 2961 2963 2965 2967 2969 2971 2973 2975 2977 2978 2980 2981 2981 2982 2982 2983 2984 2985 2986 2986 2988 2989 2989 2990 2991 2991 2991 2991 2991 2990 2989 2988 2986 2984 2981 2979
2929 2930 2931 2932 2933 2935 2936 2939 2941 2944 2949 2951 2953 2955 2957 2958 2960 2961 2963 2965 2966 2967 2969 2971 2973 2974 2976 2977 2978 2979 2980 2981 2981 2982 2983 2984 2984 2985 2985 2986 2987 2987 2987 2987 2986 2986 2986 2984 2983 2981 2979 2977 2974 2972
2936 2936 2936 2937 2937 2938 2939 2943 2946 2949 2953 2956 2956 2958 2959 2960 2962 2962 2963 2964 2965 2967 2969 2971 2973 2974 2975 2976 2977 2978 2979 2979 2979 2980 2981 2982 2982 2982 2983 2983 2982 2982 2982 2982 2981 2980 2979 2978 2977 2975 2972 2969 2967 2963
2940 2940 2941 2941 2941 2942 2943 2945 2947 2951 2954 2955 2957 2959 2960 2961 2962 2962 2963 2964 2966 2966 2968 2970 2972 2973 2973 2974 2975 2976 2976 2977 2978 2978 2978 2978 2978 2978 2978 2978 2977 2976 2976 2976 2975 2974 2973 2971 2969 2966 2963 2961 2958 2954
2943 2943 2944 2944 2945 2946 2948 2949 2952 2954 2956 2957 2959 2960 2961 2961 2962 2962 2963 2965 2965 2966 2968 2969 2970 2971 2971 2971 2972 2972 2973 2974 2974 2975 2974 2974 2974 2973 2973 2972 2971 2970 2969 2969 2968 2968 2967 2964 2962 2959 2956 2952 2948 2944
2946 2946 2946 2946 2947 2949 2953 2953 2955 2955 2956 2958 2959 2960 2961 2962 2962 2963 2963 2964 2965 2967 2967 2968 2968 2968 2968 2968 2968 2968 2969 2969 2970 2970 2969 2969 2969 2968 2967 2966 2965 2965 2964 2963 2963 2961 2959 2957 2954 2950 2947 2943 2939 2934
2947 2947 2947 2948 2949 2951 2953 2953 2954 2955 2956 2958 2959 2960 2962 2962 2964 2963 2964 2966 2967 2967 2968 2968 2967 2967 2967 2966 2966 2965 2965 2965 2965 2965 2964 2964 2963 2962 2962 2962 2961 2960 2958 2956 2955 2953 2951 2948 2944 2940 2936 2932 2928 2923
2949 2949 2951 2950 2951 2954 2955 2956 2957 2958 2958 2960 2961 2962 2963 2964 2964 2964 2965 2966 2966 2966 2966 2966 2965 2965 2965 2964 2964 2963 2963 2962 2961 2961 2961 2960 2959 2958 2957 2956 2955 2954 2951 2949 2947 2944 2941 2937 2933 2929 2925 2921 2917 2913
2948 2950 2953 2953 2955 2957 2957 2958 2959 2960 2960 2961 2963 2963 2964 2964 2964 2965 2966 2966 2965 2965 2965 2964 2963 2963 2963 2962 2961 2961 2960 2959 2958 2957 2957 2956 2955 2953 2951 2950 2948 2947 2943 2941 2938 2934 2930 2926 2922 2919 2915 2911 2907 2904
2952 2955 2956 2957 2958 2959 2959 2960 2960 2961 2962 2963 2964 2964 2964 2965 2964 2966 2965 2965 2964 2964 2963 2963 2962 2961 2960 2959 2958 2958 2957 2955 2954 2953 2952 2950 2948 2946 2944 2942 2939 2936 2933 2930 2927 2923 2920 2916 2913 2909 2906 2902 2898 2895
2956 2958 2959 2960 2960 2961 2961 2962 2962 2963 2963 2964 2964 2964 2964 2965 2965 2965 2964 2963 2962 2962 2961 2960 2959 2958 2957 2956 2955 2954 2952 2950 2949 2947 2945 2942 2940 2938 2936 2933 2931 2928 2925 2921 2918 2914 2910 2906 2903 2899 2896 2893 2890 2886
2960 2961 2963 2963 2964 2963 2964 2964 2964 2964 2964 2964 2964 2963 2964 2963 2962 2961 2961 2960 2959 2958 2957 2956 2955 2953 2952 2950 2949 2947 2946 2944 2942 2939 2937 2935 2932 2930 2928 2925 2922 2918 2915 2911 2907 2904 2900 2897 2894 2890 2887 2884 2881 2878
2964 2964 2964 2965 2965 2964 2964 2964 2963 2963 2962 2961 2961 2960 2960 2959 2958 2957 2956 2955 2954 2953 2951 2950 2949 2948 2946 2945 2943 2941 2939 2937 2935 2934 2931 2928 2925 2922 2919 2915 2912 2908 2905 2901 2898 2894 2891 2888 2884 2881 2878 2875 2872 2869
2965 2965 2964 2963 2964 2963 2962 2961 2960 2959 2958 2957 2956 2956 2955 2954 2953 2952 2951 2950 2948 2947 2946 2945 2943 2942 2941 2939 2937 2935 2933 2932 2929 2927 2924 2920 2917 2913 2909 2905 2902 2898 2895 2891 2888 2884 2881 2877 2874 2871 2869 2866 2863 2861
2964 2964 2964 2962 2961 2960 2959 2958 2956 2956 2954 2954 2953 2952 2950 2949 2948 2947 2946 2944 2943 2942 2941 2940 2939 2938 2936 2934 2931 2929 2927 2924 2921 2918 2915 2911 2907 2903 2899 2895 2891 2887 2884 2880 2877 2874 2871 2868 2865 2862 2860 2857 2855 2852
2962 2962 2961 2960 2958 2957 2956 2955 2954 2953 2952 2950 2949 2947 2946 2945 2944 2943 2942 2941 2941 2939 2938 2937 2935 2933 2931 2928 2926 2923 2920 2916 2913 2908 2904 2900 2897 2892 2888 2884 2880 2877 2873 2870 2867 2864 2861 2858 2855 2853 2851 2848 2846 2844